Regional Weather Roundup
Issued by NWS

Home | Current Version | Previous Version | Text Only | Print | Product List | Glossary Off
Versions: 1 2 3 4 5 6 7 8 9 10 11 12 13 14 15 16 17 18 19 20 21 22 23 24 25 26 27 28 29 30 31 32 33 34 35 36 37 38 39 40 41 42 43 44 45 46 47 48 49 50

000
ASUS43 KMPX 280610
RWRMN
WEATHER ROUNDUP FOR MINNESOTA
NATIONAL WEATHER SERVICE TWIN CITIES/CHANHASSEN MN
100 AM CDT MON JUL 28 2014


NOTE: "FAIR" INDICATES FEW OR NO CLOUDS BELOW 12,000 FEET WITH NO
SIGNIFICANT WEATHER AND/OR OBSTRUCTIONS TO VISIBILITY. N/A MEANS
CURRENT SKY AND/OR WEATHER CONDITIONS ARE NOT AVAILABLE.

MNZ060>063-068>070-280700-
   Twin Cities Metro

CITY           SKY/WX    TMP DP  RH WIND       PRES   REMARKS
TWIN CITIES    CLOUDY    65  58  78 N6        30.13S
6HR MIN TEMP:  65; 6HR MAX TEMP:  71;

ST PAUL        CLOUDY    64  58  80 N8        30.13R
CRYSTAL        CLOUDY    65  56  72 NW5       30.13R
BLAINE         CLOUDY    64  59  82 NW5       30.14R
LAKEVILLE      CLOUDY    63  55  77 CALM      30.14R
EDEN PRAIRIE   CLOUDY    65  58  78 N5        30.13R
6HR MIN TEMP:  65; 6HR MAX TEMP:  73;

SOUTH ST PAUL  CLOUDY    65  56  74 N5        30.13R
LAKE ELMO      CLOUDY    63  59  88 NW3       30.14R
$$
MNZ001>005-007-008-013>017-022>024-027-028-280700-
   Northwest Minnesota

CITY           SKY/WX    TMP DP  RH WIND       PRES   REMARKS
BEMIDJI        CLOUDY    59  55  86 NW6       30.19R
HALLOCK        PTCLDY    55  54  94 CALM      30.21S
ROSEAU         MOCLDY    57  52  82 NW5       30.20S
WARROAD        MOCLDY    55  52  88 NW6       30.20S
THIEF RVR FALL CLOUDY    61  55  82 N6        30.21S
CROOKSTON      CLOUDY    61  57  88 N6        30.22S
FOSSTON        CLOUDY    57  55  94 NW6       30.21S
DETROIT LAKES  CLOUDY    61  57  88 NW7       30.22R
MOORHEAD       MOCLDY    59  59 100 NW3       30.22R
PARK RAPIDS    CLOUDY    61  56  83 N8        30.19S
$$
MNZ006-009>011-018-025>026-280700-
   North Central Minnesota

CITY           SKY/WX    TMP DP  RH WIND       PRES   REMARKS
BAUDETTE       CLOUDY    57  53  86 VRB3      30.19R
FLAG ISLAND    CLEAR     63  57  82 NW10      30.17S
INTL FALLS     CLEAR     50  48  93 NW3       30.16R
6HR MIN TEMP:  48; 6HR MAX TEMP:  70;

WASKISH        CLOUDY    61  55  82 CALM      30.18R
BIG FORK       CLOUDY    57  54  88 NW1       30.17R
LONGVILLE      CLOUDY    63  54  72 CALM      30.17S
GRAND RAPIDS   CLOUDY    57  54  88 NW3       30.16R
CRANE LAKE     CLEAR     48  48 100 CALM      30.16S
ORR            PTCLDY    54  52  94 CALM      30.13S
COOK           CLOUDY    52  52 100 CALM      30.15S
$$
MNZ012-019>021-037-280700-
   Northeast Minnesota

CITY           SKY/WX    TMP DP  RH WIND       PRES   REMARKS
DULUTH         MOCLDY    56  53  90 NW7       30.12R
6HR MIN TEMP:  56; 6HR MAX TEMP:  61;

ELY            MOCLDY    50  48  93 CALM      30.13S
HIBBING        CLOUDY    57  52  83 N5        30.14S
EVELETH        CLOUDY    59  52  77 CALM      30.15R
DULUTH HARBOR  CLEAR     61  55  82 N9        30.11R
TWO HARBORS    CLEAR     54  48  82 N3        30.10R
SILVER BAY     CLEAR     50  50 100 NW3       30.10S
GRAND MARAIS     N/A     57  52  83 NW6       30.08S
G MARAIS ARPRT   N/A     52  46  82 NW5       30.12S
$$
MNZ029>031-032-039>041-046>048-054>057-064-280700-
   West Central Minnesota

CITY           SKY/WX    TMP DP  RH WIND       PRES   REMARKS
FERGUS FALLS   CLOUDY    61  55  82 N8        30.21R
WHEATON        MOCLDY    57  55  94 NW5       30.23R
MORRIS         MOCLDY    63  59  88 NW3       30.19S
ALEXANDRIA     CLOUDY    62  59  90 N3        30.21R
ELBOW LAKE     CLOUDY    62  58  88 N5        30.20R
WADENA         CLOUDY    61  57  88 CALM      30.19R
GLENWOOD       PTCLDY    61  57  88 N3        30.20S
APPLETON       CLOUDY    63  57  82 N9        30.19S
BENSON         LGT RAIN  63  59  88 N9        30.19S
ORTONVILLE     CLOUDY    63  55  77 NW6       30.21R
MADISON        CLOUDY    64  57  77 NW7       30.21R
WILLMAR        MOCLDY    64  61  88 N7        30.19S
$$
MNZ033>034-036-042>043-049>051-058-059-280700-
   Central Minnesota

CITY           SKY/WX    TMP DP  RH WIND       PRES   REMARKS
ST CLOUD       CLOUDY    64  58  80 NW3       30.15S
6HR MIN TEMP:  63; 6HR MAX TEMP:  72;

SAUK CENTRE    CLOUDY    61  59  92 NW5       30.18S
PAYNESVILLE    CLOUDY    61  59  93 CALM      30.18S
AITKIN         CLOUDY    63  55  77 CALM      30.15S
PINE RIVER     CLOUDY    63  57  82 NW5       30.20S
BRAINERD       CLOUDY    63  57  81 N6        30.17S
STAPLES        CLOUDY    61  57  88 NW5       30.18S
LONG PRAIRIE   CLOUDY    59  57  94 NW3       30.19R
LITTLE FALLS   CLOUDY    63  55  77 CALM      30.17S
LITCHFIELD     CLOUDY    63  63 100 CALM      30.17S
BUFFALO        CLOUDY    64  56  77 N3        30.16R
MAPLE LAKE     CLOUDY    63  59  89 W3        30.17R
$$
MNZ037-044-045-052-053-280700-
   East Central Minnesota

CITY           SKY/WX    TMP DP  RH WIND       PRES   REMARKS
PRINCETON      CLOUDY    63  59  88 CALM      30.15R
MORA           CLEAR     55  54  94 CALM      30.16R
CAMBRIDGE      MOCLDY    63  54  72 NW3       30.12S
RUSH CITY      PTCLDY    57  54  91 CALM      30.13S
MOOSE LAKE     CLEAR     55  54  94 N6        30.12R
HINCKLEY       CLOUDY    59  57  94 NW6       30.13S
CLOQUET        CLEAR     55  52  88 NW5       30.13S
MCGREGOR       MOCLDY    55  54  94 NW3       30.16R
$$
MNZ071>073-080-081-089-090-097-098-280700-
   Southwest Minnesota

CITY           SKY/WX    TMP DP  RH WIND       PRES   REMARKS
MONTEVIDEO     CLOUDY    63  57  82 N8        30.20R
GRANITE FALLS  CLOUDY    62  58  86 NW9       30.20S
CANBY          CLOUDY    61  56  82 NW8       30.22S
MARSHALL       CLOUDY    61  55  82 NW8       30.19S
REDWOOD FALLS  CLOUDY    63  58  83 NW8       30.17R
OLIVIA         CLOUDY    63  57  82 NW6       30.16S
PIPESTONE      CLEAR     57  54  88 N5        30.21S
WINDOM         CLOUDY    61  55  82 NW13G18   30.18R
WORTHINGTON    PTCLDY    57  54  88 N8        30.20S
JACKSON        MOCLDY    59  55  88 N9        30.18S
TRACY          CLOUDY    62  57  84 NW9       30.20S
SLAYTON        MOCLDY    56  55  95 CALM      30.21S
$$
MNZ065>067-074>077-082>085-091>093-280700-
   South Central Minnesota

CITY           SKY/WX    TMP DP  RH WIND       PRES   REMARKS
MANKATO        CLOUDY    63  57  82 N5        30.15R
NEW ULM        MOCLDY    63  63 100 NW6       30.16R
ST JAMES       CLOUDY    63  63 100 W7        30.17S
FAIRMONT       CLOUDY    63  55  77 NW9       30.16R
GLENCOE        MOCLDY    63  58  84 CALM      30.15R
FARIBAULT      CLOUDY    64  54  68 CALM      30.14S
OWATONNA       CLOUDY    63  55  77 NE5       30.14R
WASECA         CLOUDY    59  52  77 CALM      30.16R
ALBERT LEA     CLOUDY    63  55  77 N6        30.14R
$$
MNZ078>079-086>088-094>096-280700-
   Southeast Minnesota

CITY           SKY/WX    TMP DP  RH WIND       PRES   REMARKS
ROCHESTER      CLEAR     57  54  89 NW7       30.14R
6HR MIN TEMP:  57; 6HR MAX TEMP:  71; 6HR PCP:  0.04;

RED WING       CLOUDY    59  55  88 CALM      30.11S
STANTON        CLOUDY    62  55  80 CALM      30.13R
DODGE CENTER   PTCLDY    57  55  94 N6        30.13S
WINONA         CLEAR     59  54  82 CALM      30.11R
AUSTIN         PTCLDY    57  55  94 N3        30.13R
PRESTON        CLEAR     56  56 100 N6        30.12R
$$
ABBREVIATIONS USED IN REMARKS
   TC - TEMPERATURES IN CELSIUS
  WCI - WIND CHILL INDEX
   HX - HEAT INDEX
  VSB - VISIBILITY
$$


USA.gov is the U.S. government's official web portal to all federal, state and local government web resources and services.